Regional Weather Roundup
Issued by NWS

Home | Current Version | Previous Version | Text Only | Print | Product List | Glossary On
Versions: 1 2 3 4 5 6 7 8 9 10 11 12 13 14 15 16 17 18 19 20 21 22 23 24 25 26 27
000
ASUS46 KPQR 302210
RWROR

OREGON REGIONAL WEATHER ROUNDUP
NATIONAL WEATHER SERVICE PORTLAND OR
300 PM PDT TUE AUG 30 2016

NOTE: "FAIR" INDICATES FEW OR NO CLOUDS BELOW 12,000 FEET WITH
NO SIGNIFICANT WEATHER AND/OR OBSTRUCTIONS TO VISIBILITY.

ORZ001>013-302300-
NORTHWEST OREGON


CITY           SKY/WX    TMP DP  RH WIND       PRES   REMARKS
ASTORIA        MOSUNNY   68  56  65 SW16G24   30.00F
NEWPORT        MOSUNNY   64  54  68 SW18G24   30.08S
PORTLAND       CLOUDY    68  51  54 NE7       30.03F
VANCOUVER WA   CLOUDY    68  51  54 S5        30.02F
SCAPPOOSE      PTSUNNY   67  51  56 E8        30.01F
HILLSBORO      PTSUNNY   69  52  54 S9        30.01F
AURORA         PTSUNNY   68  51  54 VRB3      30.03F
MCMINNVILLE    CLOUDY    70  52  52 VRB7      30.02F
SALEM          CLOUDY    71  51  49 SW9       30.01F
CORVALLIS        N/A     72  54  53 S10       30.04S
EUGENE         PTSUNNY   70  51  51 SW8       30.04F
$$

ORZ021-028-302300-
SOUTHWEST OREGON


CITY           SKY/WX    TMP DP  RH WIND       PRES   REMARKS
NORTH BEND     CLOUDY    66  55  68 W13       30.06F
BROOKINGS      SUNNY     65  54  67 VRB7      30.07F
ROSEBURG       SUNNY     74  48  39 W5        30.01F
SEXTON SUMMIT  SUNNY     69  44  40 VRB3      30.08F
MEDFORD        SUNNY     80  45  28 NW8G16    29.96F
$$

ORZ014>016-041-302300-
COLUMBIA GORGE


CITY           SKY/WX    TMP DP  RH WIND       PRES   REMARKS
TROUTDALE      CLOUDY    67  51  56 CALM      30.03F
HOOD RIVER     CLOUDY    66  50  55 W3G17     29.97S
THE DALLES     CLOUDY    71  47  42 W16G26    29.92F
$$

ORZ029>031-041-044-049-050-061>064-502-503-505>511-302300-
EASTERN OREGON


CITY           SKY/WX    TMP DP  RH WIND       PRES   REMARKS
REDMOND        CLOUDY    74  39  28 W6        29.98S
BEND           CLOUDY    72  45  37 CALM      29.99F
PRINEVILLE     CLOUDY    77  34  20 SE14      29.98R
KLAMATH FALLS  SUNNY     80  33  18 VRB6      30.03F
LAKEVIEW       SUNNY     82  28  14 SW17G30   30.07F
HERMISTON      CLOUDY    78  50  37 W6        29.87F
PENDLETON      CLOUDY    76  44  32 W17       29.91F
JOHN DAY       CLOUDY    82  28  14 E5        29.97F
MEACHAM        CLOUDY    74  35  24 CALM      30.02S
LA GRANDE      CLOUDY    81  43  26 NE6       29.90F
BAKER CITY     CLOUDY    82  45  27 W6        29.93F
BURNS          CLOUDY    81  24  12 VRB3      30.04S
ROME             N/A     93  12   5 VRB5      29.95F
ONTARIO        PTSUNNY   87  42  20 CALM      29.88F
$$




USA.gov is the U.S. government's official web portal to all federal, state and local government web resources and services.